Location: Lake Sonoma
(38.7200°N, 123.0564°W)
Time: 02:04:49
(UTC-08:00)

Amateur Radio Satellites - All Passes

Search period start: 14 February 2016 01:34
Search period end: 15 February 2016 01:34
Location: Lake Sonoma, 38.7200°N, 123.0564°W

Satellite Date Start Highest point End Downlink Frequencies (MHz)
Time Altitude Azimuth
ITAMSAT 1 14 Feb 01:39:40 01:42:04 13° 91° (E) 01:44:28 435.822/435.867
KKS-1 14 Feb 01:41:38 01:44:01 14° 64° (ENE) 01:46:24 437.445
AIST 2 14 Feb 01:41:56 01:44:22 15° 45° (NE) 01:46:46 435.215
BEESAT 3 14 Feb 01:52:21 01:55:46 28° 246° (WSW) 01:59:09 437.485
JAS-2 14 Feb 01:52:34 01:58:01 68° 102° (ESE) 02:03:09 435.910
DANDE 14 Feb 01:53:02 02:01:03 90° 330° (NNW) 02:09:35 436.750
Oscar 19 14 Feb 01:57:36 02:02:44 73° 285° (WNW) 02:07:48 437.125/150
YUBILEINY 14 Feb 02:04:55 02:12:46 39° 86° (E) 02:20:41 435.215
SWISSCUBE 14 Feb 02:08:33 02:12:54 35° 262° (W) 02:17:17 437.505
MOZHAYETS 4 14 Feb 02:10:20 02:11:40 11° 62° (ENE) 02:12:59
CUSAT 1 14 Feb 02:23:56 02:31:16 37° 287° (WNW) 02:38:24 437.405
BEESAT 2 14 Feb 02:25:32 02:28:28 20° 249° (WSW) 02:31:23 435.950
PHONESAT 2.4 14 Feb 02:32:55 02:36:12 80° 12° (NNE) 02:39:28 2401.200-2431.200
SO-50 14 Feb 02:40:45 02:43:52 17° 109° (ESE) 02:47:02 436.795
Cosmos 2504 14 Feb 02:41:23 02:43:54 11° 74° (ENE) 02:46:25 435.465 / 435.565
STARS 14 Feb 02:46:20 02:50:23 37° 71° (ENE) 02:54:26 437.465
ITUPSAT 1 14 Feb 02:49:42 02:52:35 16° 268° (W) 02:55:28 437.325
BEESAT 14 Feb 02:55:38 02:57:57 13° 269° (W) 03:00:17 436.000
AO-7 14 Feb 02:57:44 03:04:26 26° 95° (E) 03:11:03 29.400- 29.500
Gurwin Techsat 1B 14 Feb 03:06:40 03:11:43 45° 289° (WNW) 03:16:45 435.225
Cosmos 2491 14 Feb 03:15:35 03:23:24 38° 274° (W) 03:31:15 435.465 / 435.565
KKS-1 14 Feb 03:15:47 03:20:08 52° 260° (W) 03:24:30 437.445
ITAMSAT 1 14 Feb 03:16:47 03:22:00 69° 286° (WNW) 03:27:11 435.822/435.867
AIST 2 14 Feb 03:19:09 03:23:13 58° 242° (WSW) 03:27:14 435.215
DANDE 14 Feb 03:39:17 03:45:04 21° 296° (WNW) 03:51:00 436.750
JAS-2 14 Feb 03:39:37 03:42:24 14° 301° (WNW) 03:45:05 435.910
MOZHAYETS 4 14 Feb 03:43:38 03:48:11 73° 258° (WSW) 03:52:47
YUBILEINY 14 Feb 04:01:07 04:09:23 44° 285° (WNW) 04:17:45 435.215
PHONESAT 2.4 14 Feb 04:10:22 04:13:17 29° 207° (SSW) 04:16:10 2401.200-2431.200
SO-50 14 Feb 04:19:06 04:23:55 56° 305° (NW) 04:28:48 436.795
STARS 14 Feb 04:23:52 04:26:52 18° 266° (W) 04:29:53 437.465
Cosmos 2504 14 Feb 04:26:57 04:35:29 69° 93° (E) 04:44:19 435.465 / 435.565
HORYU 2 14 Feb 04:35:16 04:39:43 66° 101° (ESE) 04:44:09 437.375
CUBESAT XI-V 14 Feb 04:37:40 04:42:04 41° 72° (ENE) 04:46:30 437.345
M-CUBED/EXP-1 PRIME 14 Feb 04:45:30 04:49:01 87° 104° (ESE) 04:52:47 437.505
AO-7 14 Feb 04:49:28 04:57:40 65° 293° (WNW) 05:05:49 29.400- 29.500
AUBIESAT-1 14 Feb 04:50:55 04:54:29 82° 108° (ESE) 04:58:17 437.475
CUTE-I 14 Feb 05:30:40 05:34:29 19° 93° (E) 05:38:17 437.470
STRAND 1 14 Feb 05:38:09 05:42:14 25° 66° (ENE) 05:46:20 437.568
Cubesat XI-IV 14 Feb 05:45:25 05:49:57 27° 95° (E) 05:54:27 437.490
BRITE-PL 14 Feb 06:10:50 06:14:23 22° 93° (E) 06:17:45 437.365/2234.400
HORYU 2 14 Feb 06:14:07 06:15:43 12° 297° (WNW) 06:17:20 437.375
CUBESAT XI-V 14 Feb 06:16:21 06:19:37 19° 267° (W) 06:22:54 437.345
Cosmos 2504 14 Feb 06:22:37 06:29:35 26° 292° (WNW) 06:36:43 435.465 / 435.565
AO-7 14 Feb 06:45:06 06:48:50 14° 312° (NW) 06:52:35 29.400- 29.500
LilacSat-2 14 Feb 06:45:32 06:49:18 71° 284° (WNW) 06:53:04 437.200
O/OREOS (USA 219) 14 Feb 06:48:27 06:52:48 53° 107° (ESE) 06:57:12 437.305
GOMX 1 14 Feb 06:51:10 06:54:54 28° 96° (E) 06:58:31 467.674
CUTE-I 14 Feb 07:09:35 07:14:47 50° 289° (WNW) 07:19:57 437.470
PRISM 14 Feb 07:15:03 07:19:12 70° 74° (ENE) 07:23:22 437.425
STRAND 1 14 Feb 07:16:28 07:21:11 37° 262° (W) 07:25:57 437.568
Cubesat XI-IV 14 Feb 07:25:09 07:30:02 37° 291° (WNW) 07:34:55 437.490
Cosmos 2499 14 Feb 07:29:08 07:30:29 10° 73° (ENE) 07:31:51 435.465 / 435.565
GONETS M04 14 Feb 07:31:43 07:38:59 31° 84° (E) 07:46:17
HO-68 14 Feb 07:38:03 07:44:10 29° 96° (E) 07:50:14 435.675
CANX-2 14 Feb 07:40:12 07:43:38 23° 95° (E) 07:47:04 2200.000
AO-85 14 Feb 07:44:14 07:46:08 12° 104° (ESE) 07:48:04 145.980
DOVE 4 14 Feb 07:44:56 07:49:04 59° 100° (E) 07:53:08 437.250
BRITE-PL 14 Feb 07:48:59 07:52:55 29° 291° (WNW) 07:56:37 437.365/2234.400
JUGNU 14 Feb 08:02:46 08:04:44 12° 180° (S) 08:06:42 437.505
CINEMA 3 14 Feb 08:03:01 08:06:42 29° 97° (E) 08:10:25 145.822/145.860
COMPASS 1 14 Feb 08:04:23 08:07:35 20° 94° (E) 08:10:45 437.405
SEEDS 14 Feb 08:26:50 08:31:01 52° 100° (E) 08:35:10 437.485
AAUSAT CUBESAT 2 14 Feb 08:27:45 08:31:30 31° 97° (E) 08:35:14 437.432
CUTE 1.7 + AOD 2 14 Feb 08:29:16 08:33:34 76° 102° (ESE) 08:37:52 437.475
GOMX 1 14 Feb 08:29:37 08:32:51 21° 293° (WNW) 08:35:59 467.674
O/OREOS (USA 219) 14 Feb 08:29:55 08:32:33 15° 305° (NW) 08:35:12 437.305
Oscar 11 14 Feb 08:41:48 08:44:51 18° 93° (E) 08:47:52 145.826/435.025
ANTELSAT 14 Feb 08:46:51 08:49:24 16° 66° (ENE) 08:51:55 437.575/2403.000
TIGRISAT 14 Feb 08:51:46 08:54:29 17° 66° (ENE) 08:57:12 435.000
UWE-3 14 Feb 09:02:45 09:06:40 35° 98° (E) 09:10:40 435.000/436.395/437.385
DELFI C3 14 Feb 09:03:02 09:05:32 16° 93° (E) 09:08:01 145.870
CUBEBUG 2 14 Feb 09:12:28 09:16:41 66° 101° (ESE) 09:21:00 437.445
Cosmos 2499 14 Feb 09:13:11 09:21:47 64° 92° (E) 09:30:31 435.465 / 435.565
CANX-2 14 Feb 09:15:47 09:19:28 28° 290° (WNW) 09:23:07 2200.000
PCSat 14 Feb 09:18:07 09:23:12 43° 111° (ESE) 09:28:19 145.827
AO-85 14 Feb 09:20:30 09:25:50 88° 300° (WNW) 09:31:23 145.980
HUMSAT D 14 Feb 09:23:03 09:24:10 11° 91° (E) 09:25:17 437.325/437.525
HO-68 14 Feb 09:25:11 09:32:05 51° 292° (WNW) 09:38:57 435.675
DOVE 4 14 Feb 09:25:16 09:26:15 11° 297° (WNW) 09:27:13 437.250
GONETS M04 14 Feb 09:26:54 09:35:19 53° 283° (WNW) 09:43:49
QB50P1 14 Feb 09:33:22 09:34:52 12° 64° (ENE) 09:36:22 145.935-145.965
UNISAT 6 14 Feb 09:36:35 09:40:48 56° 74° (ENE) 09:44:58 437.425
COMPASS 1 14 Feb 09:39:27 09:43:10 30° 289° (WNW) 09:46:51 437.405
CINEMA 3 14 Feb 09:40:35 09:43:41 21° 291° (WNW) 09:46:49 145.822/145.860
ZACube-1 14 Feb 09:45:04 09:49:21 77° 102° (ESE) 09:53:42 437.345
SRMSAT 14 Feb 09:48:30 09:50:21 11° 178° (S) 09:52:12 437.500
FUNcube-1 14 Feb 09:51:27 09:55:44 87° 103° (ESE) 10:00:05 145.935
AIST 1 14 Feb 09:52:19 09:56:35 53° 94° (E) 10:00:53
BUGSAT 1 14 Feb 10:01:50 10:03:13 11° 64° (ENE) 10:04:37 437.445
AAUSAT CUBESAT 2 14 Feb 10:03:41 10:06:48 20° 292° (WNW) 10:09:55 437.432
SEEDS 14 Feb 10:04:13 10:06:16 13° 295° (WNW) 10:08:17 437.485
RS-15 14 Feb 10:09:27 10:19:55 51° 110° (ESE) 10:30:52 29.354- 29.394
Oscar 11 14 Feb 10:17:05 10:21:04 36° 288° (WNW) 10:25:02 145.826/435.025
ANTELSAT 14 Feb 10:21:41 10:25:46 42° 261° (W) 10:29:50 437.575/2403.000
POLYITAN 1 14 Feb 10:25:11 10:29:12 45° 73° (ENE) 10:33:14 437.675
QB50P2 14 Feb 10:25:32 10:29:35 47° 73° (ENE) 10:33:39 145.880/145.840
TIGRISAT 14 Feb 10:26:52 10:30:53 39° 262° (W) 10:34:53 435.000
AISAT 14 Feb 10:32:43 10:34:42 13° 92° (E) 10:36:40 437.250
DELFI C3 14 Feb 10:36:50 10:40:33 36° 288° (WNW) 10:44:15 145.870
CUBEBUG 1 14 Feb 10:38:00 10:39:27 11° 91° (E) 10:40:54 437.445
DX 1 14 Feb 10:38:01 10:40:30 15° 93° (E) 10:42:59 434.975-435.025
UWE-3 14 Feb 10:39:56 10:42:54 19° 292° (WNW) 10:45:54 435.000/436.395/437.385
CUBEBUG 2 14 Feb 10:51:56 10:52:48 11° 296° (WNW) 10:53:39 437.445
POPSAT HIP 1 14 Feb 10:53:44 10:57:58 84° 257° (WSW) 11:02:13 437.405
DUCHIFAT 1 14 Feb 10:54:16 10:58:29 89° 263° (W) 11:02:42 145.980
NANOSAT C BR1 14 Feb 10:55:10 10:59:23 83° 257° (WSW) 11:03:37 145.865
HUMSAT D 14 Feb 10:55:59 11:00:07 56° 286° (WNW) 11:04:16 437.325/437.525
PCSat 14 Feb 11:02:11 11:06:45 27° 309° (NW) 11:11:19 145.827
AO-85 14 Feb 11:03:45 11:07:10 17° 319° (NW) 11:10:37 145.980
QB50P1 14 Feb 11:05:58 11:10:08 59° 259° (W) 11:14:19 145.935-145.965
Cosmos 2499 14 Feb 11:08:13 11:15:29 28° 291° (WNW) 11:22:50 435.465 / 435.565
SO-50 14 Feb 11:13:03 11:15:35 14° 40° (NE) 11:18:04 436.795
ESTCUBE 1 14 Feb 11:13:09 11:17:28 42° 99° (E) 11:21:46 437.505/2401.250
UNISAT 6 14 Feb 11:16:36 11:17:51 11° 269° (W) 11:19:05 437.425
50 SAT 14 Feb 11:22:18 11:26:05 60° 101° (E) 11:29:51 437.505
CUSAT 1 14 Feb 11:22:27 11:26:10 20° 65° (ENE) 11:29:14 437.405
AIST 1 14 Feb 11:32:41 11:34:32 12° 290° (WNW) 11:36:23
BUGSAT 1 14 Feb 11:33:59 11:38:07 58° 259° (W) 11:42:13 437.445
Oscar 19 14 Feb 11:36:04 11:39:20 17° 63° (ENE) 11:42:37 437.125/150
VELOX 1 14 Feb 11:49:26 11:53:52 87° 289° (WNW) 11:58:16 145.980
UKube-1 14 Feb 11:51:16 11:55:36 88° 104° (ESE) 11:59:54 .
SPROUT 14 Feb 11:52:02 11:55:43 28° 96° (E) 11:59:24 437.525
JAS-2 14 Feb 12:02:12 12:08:30 31° 67° (ENE) 12:14:17 435.910
POLYITAN 1 14 Feb 12:03:07 12:05:14 14° 268° (W) 12:07:22 437.675
QB50P2 14 Feb 12:03:39 12:05:38 13° 268° (W) 12:07:38 145.880/145.840
AISAT 14 Feb 12:07:12 12:11:29 52° 287° (WNW) 12:15:44 437.250
CUBEBUG 1 14 Feb 12:11:49 12:16:05 56° 286° (WNW) 12:20:18 437.445
DX 1 14 Feb 12:12:46 12:16:54 44° 288° (WNW) 12:21:00 434.975-435.025
YUBILEINY 14 Feb 12:17:35 12:23:01 17° 63° (ENE) 12:28:23 435.215
RS-15 14 Feb 12:21:38 12:32:21 49° 313° (NW) 12:43:43 29.354- 29.394
DANDE 14 Feb 12:38:06 12:44:25 66° 77° (ENE) 12:49:04 436.750
Gurwin Techsat 1B 14 Feb 12:47:14 12:51:49 30° 67° (ENE) 12:56:23 435.225
ESTCUBE 1 14 Feb 12:50:54 12:53:57 18° 294° (WNW) 12:56:58 437.505/2401.250
SO-50 14 Feb 12:51:58 12:56:48 89° 239° (WSW) 13:01:25 436.795
ITAMSAT 1 14 Feb 12:55:58 12:59:33 19° 64° (ENE) 13:03:08 435.822/435.867
CUSAT 1 14 Feb 13:04:17 13:08:37 30° 273° (W) 13:12:02 437.405
Oscar 19 14 Feb 13:13:04 13:18:10 58° 259° (W) 13:23:17 437.125/150
ITUPSAT 1 14 Feb 13:13:14 13:15:49 14° 92° (E) 13:18:24 437.325
TISAT 1 14 Feb 13:16:24 13:20:36 85° 284° (WNW) 13:24:45 437.305
BEESAT 14 Feb 13:17:50 13:20:51 16° 93° (E) 13:23:51 436.000
SPROUT 14 Feb 13:28:13 13:31:32 23° 292° (WNW) 13:34:52 437.525
ISS 14 Feb 13:37:03 13:40:13 50° 137° (SE) 13:43:23 145.825
JAS-2 14 Feb 13:45:56 13:53:15 51° 260° (W) 13:59:55 435.910
AO-7 14 Feb 13:55:17 14:02:32 34° 60° (ENE) 14:09:46 29.400- 29.500
SWISSCUBE 14 Feb 14:09:30 14:14:17 64° 101° (ESE) 14:19:03 437.505
YUBILEINY 14 Feb 14:12:14 14:21:08 87° 83° (E) 14:29:56 435.215
Cosmos 2491 14 Feb 14:17:44 14:26:05 53° 90° (E) 14:34:26 435.465 / 435.565
Cosmos 2504 14 Feb 14:23:03 14:29:25 23° 66° (ENE) 14:35:27 435.465 / 435.565
DANDE 14 Feb 14:23:26 14:26:04 13° 283° (WNW) 14:28:26 436.750
Gurwin Techsat 1B 14 Feb 14:26:57 14:31:39 32° 263° (W) 14:36:23 435.225
ITAMSAT 1 14 Feb 14:33:33 14:38:35 51° 260° (W) 14:43:41 435.822/435.867
RS-15 14 Feb 14:40:49 14:48:49 20° 345° (NNW) 14:57:07 29.354- 29.394
ITUPSAT 1 14 Feb 14:49:15 14:53:59 56° 287° (WNW) 14:58:41 437.325
BEESAT 14 Feb 14:54:15 14:58:53 48° 288° (WNW) 15:03:28 436.000
KKS-1 14 Feb 15:08:14 15:12:11 31° 97° (E) 15:16:06 437.445
ISS 14 Feb 15:14:17 15:16:50 21° 334° (NNW) 15:19:24 145.825
M-CUBED/EXP-1 PRIME 14 Feb 15:31:49 15:35:23 89° 258° (WSW) 15:38:45 437.505
HORYU 2 14 Feb 15:31:56 15:36:11 50° 73° (ENE) 15:40:28 437.375
AUBIESAT-1 14 Feb 15:36:46 15:40:18 84° 72° (ENE) 15:43:41 437.475
MOZHAYETS 4 14 Feb 15:40:18 15:44:22 29° 96° (E) 15:48:23
BEESAT 3 14 Feb 15:41:29 15:45:24 63° 118° (ESE) 15:49:21 437.485
AO-7 14 Feb 15:46:47 15:54:55 54° 258° (WSW) 16:03:06 29.400- 29.500
SWISSCUBE 14 Feb 15:49:08 15:51:32 14° 298° (WNW) 15:53:54 437.505
YUBILEINY 14 Feb 16:11:27 16:16:38 17° 282° (WNW) 16:21:50 435.215
STARS 14 Feb 16:12:53 16:17:16 90° 166° (SSE) 16:21:38 437.465
Cosmos 2504 14 Feb 16:15:14 16:23:40 71° 267° (W) 16:31:26 435.465 / 435.565
BEESAT 2 14 Feb 16:15:23 16:19:24 85° 300° (WNW) 16:23:26 435.950
Cosmos 2491 14 Feb 16:15:42 16:23:13 32° 289° (WNW) 16:30:48 435.465 / 435.565
AO-85 14 Feb 16:16:34 16:17:39 11° 34° (NE) 16:18:45 145.980
CUBESAT XI-V 14 Feb 16:37:58 16:39:24 11° 90° (E) 16:40:49 437.345
KKS-1 14 Feb 16:45:09 16:48:34 22° 293° (WNW) 16:51:59 437.445
CUTE-I 14 Feb 16:51:02 16:55:31 29° 67° (ENE) 17:00:03 437.470
RS-15 14 Feb 16:58:45 17:07:38 23° 22° (NNE) 17:16:39 29.354- 29.394
O/OREOS (USA 219) 14 Feb 16:59:33 17:04:10 83° 69° (ENE) 17:08:46 437.305
Cubesat XI-IV 14 Feb 17:06:01 17:10:55 39° 69° (ENE) 17:15:51 437.490
HORYU 2 14 Feb 17:10:53 17:13:02 13° 268° (W) 17:15:12 437.375
AIST 2 14 Feb 17:15:21 17:19:13 38° 115° (ESE) 17:23:07 435.215
MOZHAYETS 4 14 Feb 17:17:33 17:21:24 26° 291° (WNW) 17:25:14
BRITE-PL 14 Feb 17:18:58 17:23:46 30° 69° (ENE) 17:28:25 437.365/2234.400
BEESAT 3 14 Feb 17:21:33 17:23:33 13° 316° (NW) 17:25:34 437.485
LilacSat-2 14 Feb 17:26:12 17:29:48 43° 74° (ENE) 17:33:25 437.200
GONETS M04 14 Feb 17:44:35 17:48:41 14° 60° (ENE) 17:52:45
AO-85 14 Feb 17:54:21 17:59:25 56° 55° (NE) 18:04:01 145.980
GOMX 1 14 Feb 17:57:01 18:01:44 33° 71° (ENE) 18:06:13 467.674
HO-68 14 Feb 18:06:43 18:11:38 20° 57° (ENE) 18:16:35 435.675
PCSat 14 Feb 18:07:22 18:12:02 28° 52° (NE) 18:16:39 145.827
CUBESAT XI-V 14 Feb 18:12:33 18:17:13 66° 285° (WNW) 18:21:49 437.345
Cosmos 2504 14 Feb 18:13:30 18:15:13 11° 287° (WNW) 18:16:54 435.465 / 435.565
CUTE-I 14 Feb 18:30:38 18:35:26 34° 263° (W) 18:40:17 437.470
ISS 14 Feb 18:30:47 18:31:57 11° 15° (NNE) 18:33:07 145.825
CANX-2 14 Feb 18:32:53 18:35:12 15° 66° (ENE) 18:37:32 2200.000
Cubesat XI-IV 14 Feb 18:46:46 18:51:04 25° 265° (W) 18:55:25 437.490
DOVE 4 14 Feb 18:48:21 18:53:13 54° 74° (ENE) 18:57:50 437.250
AIST 2 14 Feb 18:54:42 18:57:51 20° 312° (NW) 19:01:01 435.215
COMPASS 1 14 Feb 18:55:31 18:57:16 12° 65° (ENE) 18:59:00 437.405
BRITE-PL 14 Feb 18:56:53 19:02:04 37° 263° (W) 19:07:07 437.365/2234.400
PRISM 14 Feb 19:01:14 19:01:47 10° 91° (E) 19:02:20 437.425
LilacSat-2 14 Feb 19:03:06 19:04:20 11° 268° (W) 19:05:34 437.200
CINEMA 3 14 Feb 19:03:38 19:07:17 25° 70° (ENE) 19:10:51 145.822/145.860
Cosmos 2499 14 Feb 19:08:21 19:14:02 20° 65° (ENE) 19:19:24 435.465 / 435.565
RS-15 14 Feb 19:11:37 19:23:35 58° 51° (NE) 19:35:41 29.354- 29.394
SEEDS 14 Feb 19:17:30 19:21:09 30° 70° (ENE) 19:24:49 437.485
AAUSAT CUBESAT 2 14 Feb 19:17:36 19:20:25 18° 67° (ENE) 19:23:16 437.432
CUTE 1.7 + AOD 2 14 Feb 19:20:33 19:24:33 43° 73° (ENE) 19:28:34 437.475
STRAND 1 14 Feb 19:27:45 19:32:57 82° 103° (ESE) 19:38:06 437.568
GOMX 1 14 Feb 19:35:12 19:39:45 28° 264° (W) 19:44:08 467.674
AO-85 14 Feb 19:36:20 19:39:19 16° 254° (WSW) 19:42:08 145.980
Oscar 11 14 Feb 19:36:37 19:38:31 13° 64° (ENE) 19:40:26 145.826/435.025
GONETS M04 14 Feb 19:38:18 19:47:09 74° 81° (E) 19:55:59
PCSat 14 Feb 19:50:28 19:55:32 41° 249° (WSW) 20:00:34 145.827
HO-68 14 Feb 19:51:22 19:58:33 78° 255° (WSW) 20:05:47 435.675
UWE-3 14 Feb 19:59:03 20:02:26 24° 70° (ENE) 20:05:48 435.000/436.395/437.385
AIST 1 14 Feb 20:02:50 20:04:26 12° 70° (ENE) 20:06:01
ISS 14 Feb 20:05:58 20:09:05 41° 34° (NE) 20:12:10 145.825
CANX-2 14 Feb 20:06:37 20:10:39 45° 261° (W) 20:14:44 2200.000
CUBEBUG 2 14 Feb 20:09:23 20:13:27 45° 73° (ENE) 20:17:26 437.445
DOVE 4 14 Feb 20:28:18 20:31:07 15° 267° (W) 20:33:53 437.250
COMPASS 1 14 Feb 20:28:18 20:32:21 53° 261° (W) 20:36:27 437.405
PRISM 14 Feb 20:33:21 20:37:28 58° 286° (WNW) 20:41:31 437.425
ZACube-1 14 Feb 20:39:39 20:43:41 48° 74° (ENE) 20:47:41 437.345
CINEMA 3 14 Feb 20:40:29 20:44:20 27° 264° (W) 20:48:05 145.822/145.860
FUNcube-1 14 Feb 20:45:42 20:49:45 54° 75° (ENE) 20:53:49 145.935
AAUSAT CUBESAT 2 14 Feb 20:51:54 20:55:40 34° 263° (W) 20:59:29 437.432
SEEDS 14 Feb 20:53:45 20:56:52 20° 266° (W) 21:00:01 437.485
CUTE 1.7 + AOD 2 14 Feb 20:58:22 21:00:36 14° 268° (W) 21:02:52 437.475
Cosmos 2499 14 Feb 20:59:57 21:08:11 77° 265° (W) 21:15:42 435.465 / 435.565
STRAND 1 14 Feb 21:09:22 21:11:24 12° 300° (WNW) 21:13:25 437.568
Oscar 11 14 Feb 21:09:57 21:14:09 55° 260° (W) 21:18:24 145.826/435.025
DELFI C3 14 Feb 21:21:10 21:25:08 76° 259° (W) 21:29:09 145.870
RS-15 14 Feb 21:24:35 21:35:46 44° 252° (WSW) 21:47:02 29.354- 29.394
AISAT 14 Feb 21:30:13 21:31:25 11° 62° (ENE) 21:32:37 437.250
UNISAT 6 14 Feb 21:31:05 21:33:09 13° 92° (E) 21:35:14 437.425
DX 1 14 Feb 21:33:25 21:35:09 12° 63° (ENE) 21:36:53 434.975-435.025
UWE-3 14 Feb 21:35:21 21:38:49 25° 264° (W) 21:42:17 435.000/436.395/437.385
GONETS M04 14 Feb 21:36:48 21:43:00 22° 280° (W) 21:49:12
AIST 1 14 Feb 21:38:11 21:42:24 53° 266° (W) 21:46:33
ISS 14 Feb 21:42:58 21:45:17 18° 229° (SW) 21:47:38 145.825
HO-68 14 Feb 21:45:04 21:47:16 11° 272° (W) 21:49:27 435.675
HUMSAT D 14 Feb 21:45:46 21:49:50 81° 76° (ENE) 21:53:56 437.325/437.525
CUBEBUG 2 14 Feb 21:48:08 21:50:17 14° 268° (W) 21:52:24 437.445
50 SAT 14 Feb 22:01:41 22:04:39 23° 70° (ENE) 22:07:38 437.505
ESTCUBE 1 14 Feb 22:11:24 22:15:27 33° 70° (ENE) 22:19:32 437.505/2401.250
ANTELSAT 14 Feb 22:14:14 22:18:24 40° 99° (E) 22:22:37 437.575/2403.000
ZACube-1 14 Feb 22:18:34 22:20:14 12° 269° (W) 22:21:54 437.345
TIGRISAT 14 Feb 22:19:07 22:23:18 43° 99° (E) 22:27:33 435.000
PHONESAT 2.4 14 Feb 22:23:35 22:26:36 35° 154° (SSE) 22:29:38 2401.200-2431.200
FUNcube-1 14 Feb 22:25:23 22:26:20 11° 269° (W) 22:27:18 145.935
POPSAT HIP 1 14 Feb 22:41:02 22:43:47 17° 93° (E) 22:46:32 437.405
DUCHIFAT 1 14 Feb 22:41:07 22:43:39 16° 93° (E) 22:46:11 145.980
NANOSAT C BR1 14 Feb 22:42:06 22:44:51 17° 93° (E) 22:47:37 145.865
UKube-1 14 Feb 22:44:15 22:48:31 62° 74° (ENE) 22:52:49 .
SPROUT 14 Feb 22:45:04 22:48:08 19° 67° (ENE) 22:51:13 437.525
VELOX 1 14 Feb 22:45:07 22:49:33 69° 75° (ENE) 22:54:00 145.980
QB50P1 14 Feb 22:52:36 22:55:59 23° 95° (E) 22:59:22 145.935-145.965
Cosmos 2499 14 Feb 22:57:10 22:59:36 12° 286° (WNW) 23:02:00 435.465 / 435.565
AISAT 14 Feb 23:02:51 23:07:18 71° 258° (WSW) 23:11:46 437.250
UNISAT 6 14 Feb 23:05:52 23:10:08 52° 286° (WNW) 23:14:30 437.425
CUBEBUG 1 14 Feb 23:05:55 23:10:22 83° 258° (WSW) 23:14:49 437.445
DX 1 14 Feb 23:06:28 23:10:48 61° 259° (W) 23:15:09 434.975-435.025
BUGSAT 1 14 Feb 23:17:57 23:20:58 20° 95° (E) 23:23:58 437.445
50 SAT 14 Feb 23:35:48 23:38:36 20° 265° (W) 23:41:25 437.505
POLYITAN 1 14 Feb 23:46:56 23:51:09 77° 283° (WNW) 23:55:21 437.675
QB50P2 14 Feb 23:47:18 23:51:31 74° 284° (WNW) 23:55:43 145.880/145.840
ESTCUBE 1 14 Feb 23:48:50 23:52:18 21° 266° (W) 23:55:48 437.505/2401.250
ANTELSAT 14 Feb 23:51:51 23:54:49 18° 293° (WNW) 23:57:50 437.575/2403.000
TIGRISAT 14 Feb 23:56:52 23:59:40 17° 294° (WNW) 00:02:29 435.000
PHONESAT 2.4 15 Feb 00:00:27 00:03:44 74° 351° (N) 00:07:01 2401.200-2431.200
BEESAT 3 15 Feb 00:00:42 00:04:01 25° 51° (NE) 00:07:17 437.485
DANDE 15 Feb 00:02:09 00:07:05 18° 80° (E) 00:12:08 436.750
TISAT 1 15 Feb 00:06:33 00:10:41 58° 75° (ENE) 00:14:49 437.305
DUCHIFAT 1 15 Feb 00:15:37 00:19:31 38° 288° (WNW) 00:23:24 145.980
POPSAT HIP 1 15 Feb 00:15:50 00:19:42 36° 288° (WNW) 00:23:32 437.405
NANOSAT C BR1 15 Feb 00:16:52 00:20:43 36° 288° (WNW) 00:24:33 145.865
ITUPSAT 1 15 Feb 00:19:05 00:21:51 15° 63° (ENE) 00:24:37 437.325
CUSAT 1 15 Feb 00:19:54 00:27:15 40° 90° (E) 00:34:21 437.405
SPROUT 15 Feb 00:19:58 00:23:53 34° 263° (W) 00:27:47 437.525
BEESAT 15 Feb 00:23:19 00:26:25 17° 64° (ENE) 00:29:30 436.000
UKube-1 15 Feb 00:24:04 00:24:57 10° 269° (W) 00:25:49 .
QB50P1 15 Feb 00:28:12 00:31:43 26° 290° (WNW) 00:35:13 145.935-145.965
Cosmos 2491 15 Feb 00:30:17 00:37:05 24° 68° (ENE) 00:43:51 435.465 / 435.565
BEESAT 2 15 Feb 00:35:08 00:38:50 35° 53° (NE) 00:42:31 435.950
BUGSAT 1 15 Feb 00:52:55 00:56:21 27° 290° (WNW) 00:59:45 437.445
JAS-2 15 Feb 00:58:38 01:02:34 21° 92° (E) 01:06:23 435.910
Gurwin Techsat 1B 15 Feb 01:06:21 01:08:35 13° 90° (E) 01:10:48 435.225
SWISSCUBE 15 Feb 01:14:30 01:19:12 63° 74° (ENE) 01:23:57 437.505
YUBILEINY 15 Feb 01:18:05 01:23:55 20° 79° (E) 01:29:46 435.215
